Central Brevoort - southern half: Past 24 Hour Conditions

 

Qikiqtarjuaq Airport

03:00 AM EDT 25 October 2014
This table is a summary of hourly weather conditions for the past 24 hours.
Date / Time
(EDT)
Wind(knots) Conditions Visibility(km) Pressure(kPa) Air tempC) Relative humidity(%) Dew pointC) Wind Chill
25 October 2014
3:00 NW 9 gust 17 Mostly Cloudy 16 101.7 -8 68 -13 -14
2:00 NW 13 Cloudy 16 101.7 -8 61 -14 -16
1:00 NNW 11 Cloudy 16 101.6 -7 64 -13 -14
0:00 NNW 15 Cloudy 16 101.6 -7 66 -12 -15
24 October 2014
23:00 N 21 Cloudy 16 101.5 -6 66 -11 -15
22:00 N 20 Mainly Clear 16 101.5 -5 64 -11 -14
21:00 N 16 Cloudy 16 101.5 -5 61 -11 -13
20:00 calm Mostly Cloudy 16 101.4 -7 79 -10 *
19:00 SE 7 Clear 16 101.4 -8 76 -11 -13
18:00 SSE 6 Clear 16 101.4 -7 73 -11 -12
17:00 SSE 4 Mainly Clear 24 101.4 -5 68 -10 -9
16:00 N 9 Mainly Sunny 24 101.4 -4 71 -8 -9
15:00 NNW 13 gust 19 Light Snow 16 101.4 -4 71 -8 -10
14:00 WNW 18 gust 26 Light Snow 16 101.3 -3 67 -9 -11
13:00 NW 19 Light Snow 16 101.2 -3 69 -8 -11
12:00 NW 22 gust 28 Light Snow 16 101.1 -3 73 -8 -12
11:00 NW 25 gust 33 Light Snow 13 101.0 -4 69 -9 -13
10:00 NW 23 gust 33 Light Snow 13 100.9 -4 76 -8 -13
9:00 NW 27 gust 39 Light Snow 13 100.8 -4 73 -8 -14
8:00 NW 23 gust 40 Light Snow 10 100.7 -4 73 -8 -13
7:00 NNW 24 gust 33 Light Snow 16 100.6 -5 74 -9 -14
6:00 NW 29 gust 38 Light Snow 16 100.4 -5 73 -9 -15
5:00 NW 26 gust 37 Light Snow 16 100.3 -6 75 -9 -16
4:00 NW 16 gust 21 Cloudy 16 100.3 -7 67 -12 -15
3:00 NW 18 Cloudy 16 100.3 -7 48 -16 -16
 
Map of Arctic - Eastern Arctic marine weather areas Baker Lake Airport Chesterfield Inlet Airport Coral Harbour Airport Gjoa Haven Airport Kugaaruk Airport Rankin Inlet Airport Shepherd Bay Airport Whale Cove Airport Arctic Bay Brevoort Island Qikiqtarjuaq Airport Cape Dorset Airport Cape Dyer Cape Hooper Clyde Airport Grise Fiord Airport Hall Beach Airport Igloolik Airport Iqaluit Airport Longstaff Bluff Pangnirtung Airport Pond Inlet Airport Repulse Bay Airport Resolute Airport Resolution Island Rowley Island Airport Taloyoak Airport Wager Bay Akulivik Airport Ivujivik Airport Puvirnituq Airport Kangiqsujuaq Airport Kangirsuk Airport Quaqtaq Airport Tasiujaq Airport Cape Kakkiviak Cape Kiglapait Nain Airport Saglek Cape Mercy Kimmirut Airport Aupaluk Airport Salluit Airport Kangiqsualujjuaq Airport Fort Ross
Legend: buoyBuoy land stationLand Station